Weather History for Hodeidah, Yemen

Change the Weather History Date:

Saturday, February 16, 2013

  Actual Average Record
Temperature  
Mean Temperature 78 °F -  
Max Temperature 85 °F 83 °F 86 °F (1997)
Min Temperature 71 °F 78 °F 66 °F (2012)
Cooling Degree Days 13    
Growing Degree Days 28 (Base 50)    
Moisture  
Dew Point 68 °F    
Average Humidity 67    
Maximum Humidity 89    
Minimum Humidity 42    
Precipitation  
Precipitation 0.00 in - - ()
Sea Level Pressure  
Sea Level Pressure 29.87 in    
Wind  
Wind Speed 9 mph ()    
Max Wind Speed 20 mph    
Max Gust Speed -    
Visibility 5.8 miles    
Events      
Averages and records for this station are not official NWS values.
T = Trace of Precipitation, MM = Missing Value Source: Averaged Metar Reports

Daily Weather History Graph

Daily Weather History Graph

Search for Another Location

Airport:

Trip Planner

Search our weather history database for the weather conditions in past years. The results will help you decide how hot, cold, wet, or windy it might be!

Date:

Astronomy

Feb. 16, 2013 Rise Set
Actual Time 6:31 AM AST 6:12 PM AST
Civil Twilight 6:09 AM AST 6:34 PM AST
Nautical Twilight 5:44 AM AST 6:59 PM AST
Astronomical Twilight 5:19 AM AST 7:24 PM AST
Moon 10:38 AM AST (2/16) 11:38 PM AST (2/16)
Length of Visible Light 12h 24m
Length of Day
11h 40m
Waxing Crescent, 36% of the Moon is Illuminated
Feb 16
Waxing Crescent
Feb 17
First Quarter
Feb 25
Full
Mar 5
Last Quarter
Mar 11
New

Hourly Weather History & Observations

Time (AST) Temp. Heat Index Dew Point Humidity Pressure Visibility Wind Dir Wind Speed Gust Speed Precip Events Conditions
1:00 AM 75.2 °F - 71.6 °F 89% 29.86 in - SE 3.5 mph - N/A   Clear
3:00 AM 74 °F - 69 °F 80% 29.86 in - ESE 4.6 mph - -  
4:00 AM 73.4 °F - 68.0 °F 83% 29.83 in - East 4.6 mph - N/A   Unknown
5:00 AM 71.6 °F - 68.0 °F 88% 29.86 in - East 5.8 mph - N/A   Unknown
6:00 AM 72 °F - 67 °F 78% 29.87 in - East 5.8 mph - -  
6:00 AM 71.6 °F - 66.2 °F 83% 29.86 in - East 5.8 mph - N/A   Unknown
7:00 AM 71.6 °F - 66.2 °F 83% 29.89 in 5.0 mi East 5.8 mph - N/A   Partly Cloudy
8:00 AM 75.2 °F - 64.4 °F 69% 29.89 in - SE 6.9 mph - N/A   Clear
9:00 AM 80 °F - 67 °F 57% 29.91 in 6 mi SSE 11.5 mph - -  
9:00 AM 78.8 °F - 68.0 °F 69% 29.89 in - SSE 11.5 mph - N/A   Clear
10:00 AM 82.4 °F 86.3 °F 69.8 °F 66% 29.92 in - South 13.8 mph - N/A   Clear
11:00 AM 82.4 °F 86.3 °F 69.8 °F 66% 29.92 in - South 13.8 mph - N/A   Clear
12:00 PM 84 °F - 70 °F 54% 29.90 in 6 mi South 18.4 mph - -  
12:00 PM 84.2 °F 88.4 °F 69.8 °F 62% 29.89 in - South 18.4 mph - N/A   Clear
1:00 PM 84.2 °F 88.4 °F 69.8 °F 62% 29.86 in - SSW 17.3 mph - N/A   Clear
2:00 PM 84.2 °F 88.4 °F 69.8 °F 62% 29.86 in - South 18.4 mph - N/A   Clear
3:00 PM 85 °F - 65 °F 42% 29.84 in 6 mi South 19.6 mph - -  
3:00 PM 84.2 °F 86.6 °F 66.2 °F 55% 29.83 in - South 19.6 mph - N/A   Clear
4:00 PM 84.2 °F 86.6 °F 66.2 °F 55% 29.83 in - South 16.1 mph - N/A   Clear
5:00 PM 80.6 °F 82.7 °F 66.2 °F 61% 29.83 in - South 11.5 mph - N/A   Clear
6:00 PM 80 °F - 66 °F 53% 29.84 in 6 mi SSE 16.1 mph - -  
6:00 PM 80.6 °F 82.7 °F 66.2 °F 61% 29.83 in - SSE 16.1 mph - N/A   Clear